Vorticity
7 8 8 9 9 8 8 7 7 6 6 5 5 5 5 6 7 7 7 5 3 3 4 4 5 6 6 6 6 7 7 8 8 8 7 7 6 6 6 7 7 7 7 7 8 8 9 10 10 10 10 11 10 11 11 11 10 10 10 10 9 9 8 7 7 6 5 5 5
7 8 8 9 9 8 8 8 8 7 7 6 5 5 5 5 6 7 8 7 6 5 5 6 6 7 8 8 8 8 9 9 8 8 7 6 6 6 6 6 7 7 7 7 7 8 9 9 10 10 10 11 11 11 11 11 10 10 9 9 8 7 7 6 6 5 5 4 4
7 8 8 8 8 8 8 9 9 9 10 9 9 8 7 6 5 6 6 7 7 6 6 6 7 8 9 9 9 9 9 8 7 6 5 5 5 5 5 5 5 6 6 7 7 8 9 9 10 10 10 10 11 11 11 10 10 9 8 8 7 6 6 5 5 4 4 4 4
8 8 8 8 8 9 9 10 10 11 12 13 13 12 11 9 7 5 5 5 6 6 6 7 7 7 8 8 8 8 7 6 6 5 4 3 3 3 4 4 5 6 7 7 8 8 9 9 10 10 10 10 11 10 10 9 8 8 8 7 6 5 5 5 4 4 4 4 4
10 10 10 10 11 11 11 10 10 11 12 12 13 14 14 13 10 8 7 7 7 6 6 6 6 6 6 7 6 6 7 7 6 6 5 4 4 4 4 6 7 7 8 9 9 9 10 10 10 10 10 10 10 9 9 8 7 7 6 6 5 5 4 4 4 3 3 3 3
13 13 13 13 13 13 13 12 12 11 11 11 13 15 16 17 15 14 13 12 9 7 6 6 6 6 6 6 6 6 6 7 7 6 6 5 5 6 7 9 9 10 10 11 11 10 10 10 10 10 10 9 9 8 8 7 6 6 5 5 5 4 4 4 3 3 3 3 3
13 14 14 15 15 14 14 14 14 13 13 13 15 17 18 18 18 18 17 13 11 10 10 9 7 7 6 5 5 5 5 5 6 6 6 6 7 9 10 11 11 12 12 11 11 11 10 10 9 9 8 8 8 7 7 6 6 5 5 5 4 4 4 3 3 3 3 3 4
12 13 13 14 14 14 14 14 14 14 15 16 17 18 19 18 19 18 16 13 12 12 10 9 8 6 6 5 4 4 4 4 5 6 6 7 9 11 12 12 12 11 11 11 10 10 9 9 8 8 7 7 7 6 6 6 5 5 5 4 4 4 4 3 3 3 4 4 4
11 12 12 12 13 13 13 13 13 13 14 15 16 17 17 17 17 16 14 12 10 9 8 7 7 6 5 5 5 5 6 6 6 7 8 10 11 12 12 11 11 10 9 9 9 8 8 8 7 7 7 6 6 6 5 5 5 5 5 4 3 3 4 4 4 4 4 4 4
9 10 10 11 12 12 11 11 11 11 11 12 12 13 14 14 15 15 14 10 8 8 8 8 7 7 7 8 8 9 9 9 9 9 10 12 12 11 11 10 9 8 8 8 8 7 7 7 7 7 7 6 6 6 5 5 5 5 4 4 4 3 3 4 4 4 4 4 4
8 8 8 8 8 8 8 8 9 9 9 9 9 10 11 11 13 13 13 11 11 10 10 10 10 10 11 11 12 12 11 11 11 11 12 12 11 10 9 8 8 8 7 7 7 7 7 7 7 7 7 7 7 6 6 5 5 5 4 4 4 3 3 4 4 4 4 4 4
7 7 7 7 7 7 7 7 7 7 8 8 8 8 9 9 10 11 11 11 12 12 12 12 12 12 13 13 13 12 12 11 11 11 11 10 9 8 8 7 7 7 7 7 7 7 7 7 7 7 7 7 6 6 5 5 5 4 4 3 3 4 4 4 4 4 4 5 5
7 7 7 7 6 6 7 7 7 7 7 7 7 7 8 8 8 9 9 10 11 12 12 12 12 12 12 12 12 11 11 10 10 9 9 8 8 7 7 7 7 7 7 7 7 7 7 7 7 7 6 6 6 5 5 4 4 3 3 3 3 4 4 4 4 4 5 5 6
7 6 6 6 6 6 6 6 7 7 7 7 7 7 7 7 8 8 8 9 9 10 10 10 10 10 10 10 9 9 9 8 8 7 7 7 7 7 6 6 6 6 6 6 6 6 6 6 6 6 5 5 4 4 4 3 3 3 3 3 4 4 4 5 5 5 6 7 8
6 6 5 5 5 5 5 6 6 6 6 6 7 7 7 7 7 7 8 8 8 8 8 8 8 8 8 8 7 7 7 7 6 6 6 6 6 6 6 6 6 6 6 5 5 5 5 5 5 4 4 4 3 3 3 3 3 3 4 4 4 4 5 5 6 6 7 8 9
5 5 5 5 5 5 5 5 5 5 5 5 5 6 6 6 6 6 6 7 6 6 6 6 6 6 6 6 6 6 6 5 5 5 5 5 5 5 5 5 5 5 5 5 4 4 4 4 4 4 3 3 3 3 3 3 4 4 4 5 5 5 6 6 7 8 9 9 10
4 4 4 4 5 5 4 4 4 5 5 4 4 5 5 5 5 5 5 5 5 5 5 5 5 5 5 5 5 5 5 5 5 5 5 5 5 5 5 5 5 4 4 4 4 4 4 4 4 4 3 3 3 3 4 4 4 5 5 5 6 6 7 7 8 9 10 11 12
5 4 4 4 5 4 4 4 5 5 5 4 4 4 4 5 5 5 5 5 4 4 4 4 4 4 4 4 4 4 4 4 4 4 4 5 5 5 5 5 4 4 4 4 4 4 4 4 4 4 4 4 4 4 4 5 5 6 6 6 7 7 8 9 10 10 11 12 12
7 6 5 5 5 5 5 5 5 5 5 5 5 5 5 5 5 5 5 5 5 4 4 4 4 4 4 4 4 4 4 4 4 4 5 5 5 5 5 5 4 4 4 4 4 4 4 4 4 4 4 5 5 5 5 6 6 6 7 7 8 9 9 10 11 12 12 13 12
9 8 8 7 6 6 6 6 6 6 6 6 6 6 6 6 6 6 6 6 6 5 5 5 5 5 5 5 5 5 5 4 5 5 5 5 5 5 5 5 5 5 5 5 5 5 5 5 5 5 5 6 6 6 6 7 7 7 8 8 9 10 10 11 11 12 12 12 12
10 11 10 10 9 9 8 8 8 8 8 8 8 8 8 7 7 8 8 8 7 7 6 6 6 6 6 6 6 6 6 6 6 6 6 6 6 6 6 6 6 6 6 6 6 6 6 6 6 6 6 7 7 7 7 8 8 8 9 10 10 11 11 12 12 12 12 12 11
9 10 11 11 11 11 10 10 9 9 9 9 9 9 9 9 9 9 9 9 9 8 8 8 7 7 7 7 7 7 7 7 7 6 6 6 7 7 7 7 7 7 7 7 7 7 8 8 8 8 8 8 8 8 9 9 9 9 10 10 11 11 12 12 12 12 11 11 10
6 7 8 10 11 12 12 11 11 10 10 10 10 10 10 10 10 10 10 10 10 10 10 9 9 9 9 8 8 8 8 8 8 7 7 7 8 8 8 8 8 8 9 9 9 9 9 9 9 9 9 9 9 10 10 10 10 11 11 11 12 12 12 12 12 11 11 10 9
5 5 5 6 8 10 11 12 11 11 10 10 10 10 10 10 10 10 10 10 11 11 11 11 11 11 11 10 10 10 9 9 9 9 9 9 9 9 9 9 9 9 10 10 10 10 10 10 10 10 10 10 10 10 11 11 11 11 11 12 12 12 12 11 11 11 10 9 9
10 6 4 4 5 6 8 10 11 11 10 9 8 8 8 8 8 8 9 9 10 11 11 12 12 12 12 12 12 12 12 11 11 11 10 10 10 10 9 9 10 10 10 10 11 11 11 11 11 11 11 11 11 11 11 11 11 11 12 12 12 12 11 11 11 10 10 9 9
19 13 9 5 4 4 5 7 8 9 9 8 7 6 6 6 6 6 7 7 8 9 10 10 11 12 12 12 13 13 13 13 13 12 12 11 11 11 10 10 10 10 10 10 11 11 11 12 12 12 11 11 11 11 11 11 11 11 11 12 12 11 11 11 10 10 9 9 9
28 23 17 11 7 5 4 4 6 7 7 7 7 6 5 4 4 4 4 5 5 6 7 8 8 9 10 10 11 11 12 12 13 13 13 13 12 12 12 11 11 11 10 11 11 11 11 11 11 11 11 11 10 10 10 10 10 11 11 11 12 12 11 11 10 9 9 9 8
31 30 27 21 15 10 7 5 4 4 5 7 7 6 5 4 3 3 3 3 3 4 4 5 6 6 7 8 8 9 10 10 11 11 12 12 13 13 13 13 12 12 11 11 11 11 11 11 11 11 10 10 10 10 10 10 10 10 11 11 12 12 12 11 10 9 8 8 8
27 30 31 30 24 19 13 8 6 5 5 6 6 6 5 4 3 3 3 2 3 3 3 3 4 5 6 6 7 8 8 8 9 9 10 11 12 12 13 13 13 13 12 11 11 11 10 10 10 10 10 9 9 9 9 9 10 10 11 12 12 12 11 10 10 9 8 8 7
19 23 27 30 30 27 22 16 11 9 7 6 5 5 4 4 4 4 3 3 3 3 3 4 4 5 5 6 7 7 8 8 8 8 8 9 10 11 12 13 14 13 13 12 11 11 10 10 10 9 9 9 9 9 9 9 10 10 11 12 12 11 11 10 9 9 8 8 8
13 17 21 24 27 29 29 26 21 15 10 7 5 4 3 3 4 4 5 5 4 4 3 2 2 3 4 5 6 7 8 9 8 8 8 8 8 9 11 12 13 14 13 13 12 11 10 10 10 9 9 8 8 8 9 9 10 11 11 12 12 11 10 9 9 8 8 8 8
10 13 16 19 20 23 26 29 28 25 19 14 10 7 5 5 5 5 5 5 3 2 1 1 0 0 1 1 3 6 8 9 9 10 9 9 9 9 10 11 13 13 14 13 12 11 11 10 10 9 9 8 8 9 9 10 11 11 12 12 11 10 10 9 9 8 8 8 8
10 11 13 16 17 18 19 21 25 26 26 23 20 16 13 10 8 7 6 4 2 1 1 2 3 2 1 -1 -0 2 5 8 9 10 11 11 10 10 11 11 12 13 13 13 13 12 11 10 10 9 9 9 9 9 10 10 11 12 12 12 11 10 9 9 8 8 8 8 7
14 12 12 13 14 15 16 17 18 19 21 23 23 22 20 17 15 13 10 7 5 3 3 5 7 7 5 2 -2 -2 0 4 7 9 11 12 12 12 12 12 12 13 13 13 13 12 11 10 10 9 9 9 9 10 10 11 12 12 12 11 11 10 9 8 8 8 7 7 7
18 16 14 12 12 13 14 15 16 17 17 18 19 20 21 20 19 17 15 12 8 5 3 4 7 9 11 10 5 -0 -3 -1 3 7 10 12 13 14 13 13 13 13 13 13 13 12 11 10 10 9 9 9 10 10 11 12 13 12 12 11 10 9 8 8 8 7 7 6 6
19 19 16 14 12 11 10 11 12 13 14 15 15 16 17 18 18 17 16 14 10 7 5 4 5 8 12 16 16 10 4 -2 0 4 8 11 13 14 14 13 13 13 13 13 12 12 11 10 10 10 10 10 10 11 12 13 13 12 11 10 9 8 8 7 7 6 6 5 5
18 19 18 16 13 11 9 8 9 10 11 12 12 13 14 14 15 15 15 14 12 9 7 6 6 8 12 19 25 22 14 3 -0 1 5 9 10 12 12 13 13 13 13 12 12 11 11 10 10 10 10 11 12 12 13 13 12 11 10 9 8 7 7 7 6 6 5 5 5
15 18 18 17 14 12 10 8 7 7 8 9 10 11 12 13 14 15 16 16 15 12 10 8 8 10 13 20 29 29 23 11 3 0 2 5 7 9 10 12 13 13 13 12 11 11 10 10 11 11 12 12 13 13 13 13 12 11 9 8 7 6 6 6 5 5 5 5 6
13 16 17 17 15 14 11 9 7 6 6 7 8 11 13 16 18 20 21 22 20 18 15 11 11 11 14 19 25 27 25 18 9 3 1 2 4 6 8 11 13 13 13 12 11 11 10 10 11 12 13 14 14 13 13 11 10 9 8 7 6 6 5 5 5 5 6 6 7
13 14 16 16 16 15 13 11 9 7 5 5 7 11 15 19 21 23 24 25 26 25 22 17 14 12 13 15 17 20 21 20 15 9 5 2 3 5 7 10 12 13 13 12 11 11 11 11 12 13 14 14 14 13 11 10 9 8 7 6 5 5 5 5 5 6 7 8 9
13 14 14 15 15 15 15 14 13 10 8 7 7 9 12 14 16 18 20 22 26 29 30 27 20 15 11 10 10 12 15 18 18 15 10 4 3 4 6 9 12 13 13 12 12 12 12 12 13 14 14 14 13 11 10 9 8 7 6 5 5 5 5 6 6 7 8 9 10
Height
3053 3054 3055 3055 3055 3056 3057 3057 3058 3059 3059 3060 3060 3060 3061 3061 3062 3062 3063 3064 3065 3065 3065 3066 3066 3067 3067 3068 3069 3070 3070 3070 3071 3071 3072 3072 3073 3073 3074 3074 3074 3075 3075 3075 3076 3077 3077 3078 3078 3079 3079 3080 3080 3080 3081 3081 3082 3082 3083 3083 3084 3084 3084 3085 3085 3085 3085 3085 3085
3052 3052 3053 3053 3054 3055 3055 3056 3057 3057 3058 3059 3059 3059 3060 3060 3060 3061 3061 3062 3063 3063 3064 3064 3065 3065 3065 3066 3067 3067 3068 3068 3069 3070 3070 3070 3071 3071 3072 3072 3073 3073 3074 3074 3075 3075 3076 3076 3077 3077 3077 3078 3078 3079 3079 3080 3080 3080 3081 3081 3082 3082 3082 3083 3083 3083 3083 3083 3083
3050 3050 3051 3051 3052 3053 3053 3054 3055 3056 3056 3057 3058 3058 3058 3058 3059 3059 3060 3060 3061 3061 3062 3062 3063 3063 3064 3064 3065 3065 3065 3066 3067 3067 3068 3069 3069 3070 3070 3070 3071 3071 3072 3072 3073 3073 3074 3074 3075 3075 3075 3076 3076 3077 3077 3078 3078 3079 3079 3079 3080 3080 3080 3080 3080 3081 3081 3081 3081
3048 3048 3049 3049 3050 3050 3051 3052 3053 3054 3054 3055 3055 3056 3056 3057 3057 3058 3058 3059 3059 3060 3060 3061 3061 3061 3062 3062 3062 3063 3064 3064 3065 3065 3066 3067 3067 3068 3068 3069 3069 3070 3070 3070 3071 3071 3072 3072 3073 3073 3074 3074 3075 3075 3075 3075 3076 3076 3077 3077 3078 3078 3078 3078 3078 3079 3079 3079 3079
3046 3046 3047 3047 3048 3048 3049 3050 3050 3051 3051 3052 3053 3053 3054 3055 3055 3056 3056 3057 3058 3058 3059 3059 3059 3060 3060 3060 3061 3061 3061 3062 3063 3063 3064 3065 3065 3066 3066 3067 3067 3067 3068 3068 3069 3069 3070 3070 3070 3071 3071 3072 3072 3073 3073 3074 3074 3075 3075 3075 3075 3076 3076 3076 3076 3076 3077 3077 3077
3044 3044 3045 3045 3046 3046 3046 3047 3048 3048 3049 3049 3050 3050 3051 3052 3053 3054 3054 3055 3056 3056 3057 3057 3057 3058 3058 3059 3059 3059 3060 3060 3060 3061 3062 3062 3063 3064 3064 3065 3065 3065 3065 3066 3066 3067 3067 3068 3068 3069 3069 3070 3070 3070 3071 3071 3072 3072 3072 3073 3073 3073 3074 3074 3074 3074 3074 3074 3074
3042 3042 3043 3043 3043 3044 3044 3045 3045 3046 3046 3047 3047 3048 3049 3050 3050 3051 3052 3053 3053 3054 3054 3055 3055 3055 3056 3057 3057 3057 3058 3058 3058 3059 3059 3060 3061 3061 3062 3062 3062 3063 3063 3064 3064 3065 3065 3065 3066 3066 3067 3067 3068 3068 3069 3069 3070 3070 3070 3070 3070 3071 3071 3071 3071 3072 3072 3072 3072
3040 3040 3040 3041 3041 3042 3042 3042 3043 3043 3044 3044 3045 3046 3047 3047 3048 3049 3049 3050 3051 3051 3052 3052 3053 3053 3054 3054 3055 3055 3055 3056 3056 3056 3057 3058 3059 3059 3059 3060 3060 3060 3061 3061 3062 3062 3063 3063 3064 3064 3065 3065 3065 3066 3066 3067 3067 3067 3067 3068 3068 3068 3069 3069 3069 3069 3070 3069 3069
3038 3038 3039 3039 3039 3040 3040 3040 3040 3041 3041 3042 3043 3044 3045 3045 3045 3046 3047 3048 3049 3049 3050 3050 3050 3051 3051 3052 3052 3053 3053 3054 3054 3055 3055 3056 3056 3057 3057 3057 3058 3058 3059 3059 3060 3060 3060 3061 3061 3062 3062 3063 3063 3063 3064 3064 3065 3065 3065 3065 3065 3066 3066 3066 3066 3067 3067 3067 3067
3036 3036 3037 3037 3037 3038 3038 3038 3038 3039 3039 3040 3041 3042 3042 3043 3044 3044 3045 3046 3046 3047 3047 3048 3048 3049 3049 3050 3050 3050 3051 3051 3052 3052 3053 3053 3054 3055 3055 3055 3056 3056 3056 3057 3057 3058 3058 3058 3059 3059 3060 3060 3060 3061 3061 3062 3062 3062 3062 3063 3063 3063 3063 3064 3064 3064 3064 3064 3064
3034 3035 3035 3035 3035 3035 3035 3036 3036 3036 3037 3038 3039 3040 3040 3041 3041 3042 3043 3044 3044 3045 3045 3045 3046 3046 3047 3047 3048 3048 3049 3049 3049 3050 3050 3051 3052 3052 3053 3053 3053 3054 3054 3054 3055 3055 3056 3056 3056 3057 3057 3058 3058 3059 3059 3059 3060 3060 3060 3060 3060 3061 3061 3061 3061 3061 3061 3061 3061
3032 3032 3032 3033 3033 3033 3033 3034 3034 3035 3035 3036 3037 3037 3038 3039 3040 3040 3040 3041 3041 3042 3043 3044 3044 3044 3045 3045 3045 3046 3046 3046 3047 3047 3048 3049 3049 3050 3050 3050 3051 3051 3052 3052 3052 3053 3053 3054 3054 3054 3055 3055 3056 3056 3056 3057 3057 3057 3057 3057 3058 3058 3058 3058 3058 3059 3059 3059 3059
3030 3030 3030 3030 3030 3031 3031 3031 3032 3033 3033 3034 3035 3035 3036 3037 3037 3038 3038 3039 3039 3040 3041 3041 3041 3042 3042 3043 3043 3044 3044 3044 3045 3045 3045 3046 3047 3047 3048 3048 3049 3049 3049 3050 3050 3050 3051 3051 3051 3052 3052 3053 3053 3054 3054 3054 3055 3055 3055 3055 3055 3055 3055 3055 3056 3056 3056 3056 3056
3027 3027 3028 3028 3028 3028 3029 3029 3030 3030 3031 3032 3033 3034 3034 3035 3035 3035 3036 3036 3037 3038 3038 3039 3039 3040 3040 3040 3041 3041 3041 3042 3042 3043 3043 3044 3044 3045 3045 3046 3046 3046 3047 3047 3047 3048 3048 3049 3049 3050 3050 3050 3050 3051 3051 3052 3052 3052 3052 3052 3052 3053 3053 3053 3053 3053 3053 3053 3053
3025 3025 3025 3026 3026 3026 3026 3027 3028 3029 3029 3030 3031 3031 3032 3032 3033 3033 3034 3034 3035 3035 3036 3036 3036 3037 3037 3038 3038 3039 3039 3039 3040 3040 3040 3041 3041 3042 3043 3043 3044 3044 3044 3045 3045 3045 3046 3046 3046 3047 3047 3047 3048 3048 3049 3049 3049 3049 3050 3050 3050 3050 3050 3050 3050 3050 3050 3050 3050
3022 3022 3023 3023 3023 3024 3024 3025 3025 3026 3027 3028 3029 3029 3030 3030 3030 3030 3031 3031 3032 3033 3033 3034 3034 3035 3035 3035 3035 3036 3036 3036 3037 3037 3038 3038 3039 3039 3040 3040 3040 3041 3041 3042 3042 3043 3043 3043 3044 3044 3045 3045 3045 3045 3046 3046 3046 3046 3047 3047 3047 3047 3047 3047 3048 3048 3048 3048 3048
3019 3020 3020 3020 3021 3021 3022 3022 3023 3024 3025 3025 3026 3026 3027 3027 3028 3028 3028 3029 3030 3030 3030 3031 3031 3032 3032 3032 3033 3033 3033 3034 3034 3035 3035 3035 3036 3036 3037 3037 3038 3038 3039 3039 3039 3040 3040 3040 3041 3041 3042 3042 3042 3043 3043 3043 3043 3044 3044 3044 3044 3044 3045 3045 3045 3045 3045 3045 3045
3016 3017 3017 3017 3018 3019 3019 3020 3020 3021 3022 3023 3023 3024 3024 3024 3025 3025 3025 3026 3027 3027 3028 3028 3029 3029 3029 3029 3030 3030 3030 3031 3031 3032 3032 3033 3033 3033 3034 3034 3035 3035 3035 3036 3036 3037 3037 3038 3038 3039 3039 3039 3040 3040 3040 3040 3040 3041 3041 3041 3041 3041 3042 3042 3042 3042 3042 3042 3042
3013 3014 3014 3015 3015 3016 3017 3017 3018 3018 3019 3020 3020 3020 3021 3021 3022 3022 3022 3023 3024 3024 3025 3025 3025 3025 3026 3026 3027 3027 3028 3028 3029 3029 3030 3030 3030 3030 3031 3031 3032 3032 3033 3033 3034 3034 3035 3035 3035 3035 3036 3036 3037 3037 3037 3038 3038 3038 3038 3038 3038 3039 3039 3039 3039 3040 3040 3040 3040
3011 3011 3012 3012 3013 3013 3014 3014 3015 3015 3016 3016 3017 3017 3017 3018 3019 3019 3019 3020 3020 3021 3021 3021 3022 3022 3023 3023 3024 3024 3025 3025 3026 3026 3026 3027 3027 3027 3028 3028 3029 3029 3030 3030 3031 3031 3032 3032 3032 3033 3033 3033 3034 3034 3035 3035 3035 3035 3035 3035 3035 3036 3036 3036 3036 3037 3037 3037 3037
3008 3009 3009 3010 3010 3010 3010 3011 3011 3012 3012 3013 3013 3014 3014 3015 3015 3016 3016 3017 3017 3018 3018 3018 3019 3019 3020 3020 3021 3021 3022 3022 3023 3023 3023 3024 3024 3024 3025 3025 3025 3026 3026 3027 3028 3028 3029 3029 3030 3030 3030 3030 3030 3031 3031 3032 3032 3032 3032 3032 3033 3033 3033 3033 3033 3034 3034 3034 3034
3006 3006 3006 3006 3007 3007 3007 3008 3008 3008 3009 3009 3010 3010 3011 3011 3012 3013 3013 3014 3014 3014 3015 3015 3016 3016 3017 3017 3018 3018 3019 3019 3019 3020 3020 3020 3021 3021 3022 3022 3022 3023 3024 3024 3025 3025 3026 3026 3026 3027 3027 3027 3027 3028 3028 3028 3029 3029 3029 3030 3030 3030 3030 3030 3030 3031 3031 3031 3031
3003 3003 3003 3003 3003 3004 3004 3004 3005 3005 3005 3006 3006 3007 3008 3008 3009 3009 3010 3010 3010 3010 3011 3012 3013 3013 3014 3014 3015 3015 3015 3015 3016 3016 3017 3017 3018 3018 3018 3019 3019 3020 3020 3021 3022 3022 3023 3023 3023 3024 3024 3024 3024 3025 3025 3025 3025 3026 3026 3026 3027 3027 3027 3027 3028 3028 3028 3028 3028
2999 2999 3000 3000 3000 3000 3000 3001 3001 3001 3002 3003 3003 3004 3005 3005 3005 3006 3006 3006 3007 3007 3008 3009 3010 3010 3010 3011 3011 3011 3011 3012 3012 3013 3013 3014 3014 3015 3015 3015 3016 3017 3018 3018 3019 3019 3020 3020 3020 3020 3020 3021 3021 3021 3022 3022 3022 3023 3023 3024 3024 3024 3024 3025 3025 3025 3025 3025 3025
2995 2995 2996 2996 2996 2997 2997 2998 2998 2998 2999 3000 3000 3000 3001 3001 3002 3002 3003 3003 3004 3004 3005 3005 3006 3006 3007 3007 3008 3008 3008 3009 3009 3010 3010 3010 3011 3011 3012 3012 3013 3014 3015 3015 3016 3016 3016 3017 3017 3017 3017 3017 3018 3018 3018 3019 3019 3020 3020 3020 3021 3021 3021 3022 3022 3022 3022 3022 3022
2991 2992 2992 2992 2993 2993 2994 2994 2995 2995 2996 2996 2997 2997 2997 2998 2999 2999 2999 3000 3000 3001 3002 3002 3003 3003 3004 3004 3004 3005 3005 3005 3006 3007 3007 3007 3008 3008 3008 3009 3010 3010 3011 3012 3013 3013 3013 3014 3014 3014 3014 3014 3015 3015 3015 3016 3016 3017 3017 3017 3018 3018 3019 3019 3019 3019 3019 3019 3019
2987 2988 2988 2989 2989 2990 2990 2991 2991 2992 2992 2993 2993 2994 2994 2995 2995 2995 2996 2996 2997 2998 2998 2999 2999 3000 3000 3000 3001 3001 3002 3003 3003 3004 3004 3004 3005 3005 3005 3006 3006 3007 3008 3009 3009 3010 3010 3010 3010 3010 3011 3011 3011 3012 3012 3013 3013 3014 3014 3015 3015 3015 3016 3016 3016 3016 3016 3016 3016
2983 2984 2984 2985 2985 2986 2986 2987 2988 2988 2989 2990 2990 2990 2991 2991 2991 2992 2992 2993 2994 2994 2995 2995 2996 2996 2997 2997 2998 2998 2999 3000 3000 3000 3001 3001 3001 3002 3002 3002 3003 3004 3005 3005 3005 3006 3006 3007 3007 3007 3008 3008 3008 3009 3009 3010 3010 3010 3011 3012 3012 3013 3013 3013 3014 3014 3014 3013 3013
2980 2980 2980 2980 2981 2982 2983 2984 2984 2985 2985 2986 2986 2987 2987 2987 2987 2988 2989 2990 2990 2990 2991 2992 2992 2993 2993 2994 2995 2995 2996 2996 2997 2997 2997 2998 2998 2999 2999 3000 3000 3001 3001 3002 3002 3002 3003 3003 3004 3004 3004 3005 3005 3005 3006 3006 3007 3007 3008 3009 3009 3010 3010 3010 3011 3011 3010 3010 3010
2977 2977 2977 2977 2977 2978 2979 2980 2980 2981 2982 2982 2983 2983 2983 2983 2984 2985 2985 2986 2987 2987 2988 2988 2989 2989 2989 2990 2991 2992 2992 2993 2993 2993 2994 2994 2995 2995 2996 2996 2997 2997 2998 2998 2998 2999 2999 3000 3000 3000 3001 3001 3002 3002 3003 3003 3004 3005 3005 3006 3006 3007 3007 3007 3008 3008 3008 3008 3008
2974 2974 2974 2974 2974 2975 2975 2976 2977 2977 2978 2978 2979 2979 2979 2980 2980 2981 2982 2983 2983 2984 2984 2984 2985 2985 2986 2987 2987 2988 2989 2989 2990 2990 2990 2991 2991 2992 2993 2993 2994 2994 2994 2995 2995 2995 2996 2996 2997 2997 2998 2998 2999 2999 3000 3000 3001 3002 3002 3003 3004 3004 3004 3005 3005 3005 3005 3005 3005
2971 2971 2971 2971 2971 2971 2972 2972 2973 2973 2974 2974 2975 2975 2975 2976 2977 2978 2979 2979 2980 2980 2980 2980 2980 2981 2982 2983 2983 2984 2985 2985 2986 2986 2987 2988 2988 2989 2989 2990 2990 2990 2991 2991 2992 2992 2992 2993 2993 2994 2994 2995 2995 2996 2997 2997 2998 2999 3000 3000 3001 3001 3001 3002 3002 3002 3002 3002 3002
2969 2968 2968 2968 2968 2968 2969 2969 2969 2969 2970 2970 2971 2971 2972 2973 2974 2975 2975 2975 2975 2976 2976 2976 2977 2977 2978 2979 2980 2980 2981 2981 2982 2983 2983 2984 2984 2985 2985 2986 2986 2987 2988 2988 2988 2989 2989 2990 2990 2990 2991 2991 2992 2993 2994 2995 2995 2996 2997 2997 2998 2998 2999 2999 2999 2999 2999 2999 2999
2965 2965 2965 2965 2965 2965 2965 2965 2965 2965 2966 2966 2967 2968 2968 2969 2970 2970 2971 2972 2972 2972 2972 2972 2973 2973 2974 2974 2975 2976 2977 2977 2978 2979 2980 2980 2980 2981 2981 2982 2983 2984 2985 2985 2985 2985 2986 2986 2987 2987 2987 2988 2988 2989 2990 2991 2992 2993 2994 2995 2995 2995 2996 2996 2996 2996 2996 2996 2996
2962 2962 2961 2961 2961 2961 2961 2961 2962 2962 2962 2963 2963 2964 2965 2965 2966 2967 2968 2968 2968 2968 2968 2968 2968 2969 2969 2970 2970 2971 2972 2974 2974 2975 2976 2976 2976 2977 2978 2979 2980 2980 2981 2981 2982 2982 2983 2983 2984 2984 2984 2985 2985 2986 2987 2989 2990 2990 2991 2992 2992 2992 2993 2993 2993 2994 2994 2994 2994
2958 2958 2958 2958 2958 2958 2958 2958 2958 2958 2959 2959 2960 2960 2961 2962 2962 2963 2964 2964 2964 2964 2964 2964 2964 2964 2965 2965 2966 2967 2968 2969 2970 2971 2972 2972 2973 2973 2974 2975 2976 2977 2977 2978 2978 2979 2979 2980 2980 2981 2981 2981 2982 2983 2985 2986 2987 2988 2988 2989 2989 2990 2990 2990 2990 2990 2991 2991 2991
2954 2954 2954 2954 2954 2954 2954 2954 2954 2955 2955 2955 2956 2957 2957 2958 2958 2959 2959 2960 2960 2960 2960 2960 2959 2960 2960 2961 2962 2963 2964 2965 2966 2967 2967 2968 2969 2970 2970 2971 2972 2973 2974 2974 2975 2975 2976 2976 2977 2977 2978 2978 2979 2980 2982 2983 2984 2985 2985 2986 2986 2987 2987 2987 2987 2988 2988 2988 2988
2950 2950 2950 2950 2950 2950 2950 2950 2950 2951 2951 2952 2952 2953 2953 2953 2954 2954 2955 2955 2955 2955 2955 2955 2955 2955 2956 2957 2958 2958 2959 2960 2961 2962 2963 2964 2965 2966 2967 2967 2968 2969 2970 2970 2971 2971 2972 2973 2973 2974 2975 2975 2976 2978 2979 2980 2981 2982 2982 2983 2984 2984 2984 2985 2985 2985 2985 2985 2985
2946 2946 2946 2946 2946 2946 2946 2946 2947 2947 2948 2948 2948 2949 2949 2949 2950 2950 2950 2950 2950 2950 2951 2951 2951 2952 2953 2953 2954 2954 2955 2955 2956 2957 2959 2960 2961 2962 2963 2963 2964 2965 2965 2966 2967 2968 2968 2969 2970 2971 2971 2973 2974 2975 2976 2977 2978 2979 2980 2980 2981 2981 2981 2982 2982 2982 2982 2983 2983
2942 2942 2942 2942 2943 2943 2943 2943 2943 2944 2944 2944 2944 2945 2945 2945 2945 2945 2945 2946 2946 2946 2947 2947 2948 2948 2949 2949 2949 2950 2950 2951 2952 2953 2955 2956 2957 2958 2959 2959 2960 2961 2962 2962 2963 2964 2965 2965 2966 2967 2968 2970 2970 2972 2973 2974 2975 2975 2976 2977 2978 2978 2979 2979 2979 2980 2980 2980 2980
2938 2938 2939 2939 2939 2940 2940 2940 2940 2940 2940 2940 2940 2941 2941 2941 2941 2941 2941 2941 2942 2942 2942 2943 2943 2944 2944 2945 2945 2945 2945 2947 2948 2950 2951 2952 2953 2954 2955 2955 2956 2957 2958 2959 2960 2960 2961 2962 2963 2964 2965 2966 2967 2969 2970 2970 2971 2972 2973 2974 2975 2975 2976 2976 2976 2976 2977 2977 2977